Flag for United Kingdom Weather past 2 weeks in Birmingham, England, United Kingdom

Now
59 °F

Passing clouds.


Feels Like: 58 °F
Forecast: 55 / 69 °F
Wind: 7 mph from Northeast

Location: Birmingham / Airport

Current Time: Sep 16, 2014 at 10:51:21 AM

Latest Report: Sep 16, 2014 at 10:20 AM


Visibility: 6 mi

Pressure: 30.01 "Hg

Humidity: 88%

Dew point: 55 °F

Location of BirminghamLocation

Historic Weather in Birmingham — Graph

°F

Birmingham temperature yesterday

Maximum temperature yesterday: 66 °F (at 3:20 PM)
Minimum temperature yesterday: 54 °F (at 2:20 AM)
Average temperature yesterday: 60 °F

Past Weeks' High & Low Weather Summary

 TemperatureHumidityPressure
High70 °F (Sep 3, 3:50 PM)100% (Sep 1, 11:20 AM)30.36 "Hg (Sep 1, 11:20 AM)
Low48 °F (Sep 8, 4:20 AM)46% (Sep 7, 1:50 PM)29.95 "Hg (Sep 6, 2:50 AM)
Average60 °F77%30.14 "Hg
* Reported Sep 1 9:20 AM — Sep 16 9:50 AM, Birmingham, Weather by CustomWeather, © 2014

Note: Actual official high and low records may vary slightly from our data, if they occured in-between our weather recording intervals... More about our weather records

Advertising

Birmingham weather history for previous 24 hours

 ConditionsComfort  
Time TempWeatherWind HumidityBarometerVisibility
9:50 AM
Sep 16
57 °FFog.7 mph100%30.01 "Hg2 mi
9:20 AM55 °FFog.5 mph100%30.01 "Hg1 mi
8:50 AM55 °FFog.5 mph100%30.01 "Hg0 mi
8:20 AM55 °FFog.5 mph100%30.01 "Hg0 mi
7:50 AM55 °FFog.5 mph100%30.01 "Hg0 mi
7:20 AM55 °FFog.5 mph100%30.01 "Hg0 mi
6:50 AM54 °FFog.5 mph100%29.98 "Hg1 mi
6:20 AM52 °FFog.No wind94%29.98 "Hg0 mi
5:50 AM55 °FFog.2 mph94%29.98 "Hg1 mi
5:20 AM55 °FFog.No wind94%29.98 "Hg2 mi
4:50 AM55 °FFog.No wind100%30.01 "Hg3 mi
4:20 AM57 °FFog.No wind94%30.01 "Hg3 mi
3:50 AM57 °FFog.3 mph94%30.01 "Hg4 mi
3:20 AM59 °FClear.2 mph94%30.01 "Hg4 mi
2:50 AM59 °FHaze.2 mph94%30.01 "Hg2 mi
2:20 AM59 °FHaze.2 mph94%30.01 "Hg2 mi
1:50 AM59 °FHaze.2 mph94%30.01 "Hg2 mi
1:20 AM59 °FFog.2 mph94%30.01 "Hg5 mi
12:50 AM59 °FFog.2 mph94%30.01 "Hg5 mi
12:20 AM59 °FFog.3 mph94%30.01 "Hg6 mi
11:50 PM
Sep 15
59 °FPassing clouds.2 mph94%30.01 "Hg6 mi
11:20 PM61 °FPassing clouds.3 mph88%30.01 "Hg6 mi
10:50 PM61 °FPassing clouds.5 mph88%30.01 "HgN/A
10:20 PM61 °FPassing clouds.5 mph88%30.01 "HgN/A
9:50 PM63 °FPassing clouds.3 mph83%30.01 "HgN/A
9:20 PM63 °FPassing clouds.3 mph83%30.01 "HgN/A
8:50 PM63 °FPassing clouds.5 mph83%30.01 "HgN/A
8:20 PM63 °FScattered clouds.3 mph83%30.01 "HgN/A
7:50 PM63 °FPassing clouds.No wind83%30.01 "HgN/A
7:20 PM64 °FPassing clouds.2 mph78%30.01 "HgN/A
6:50 PM63 °FPassing clouds.2 mph83%30.01 "HgN/A
6:20 PM64 °FPassing clouds.3 mph73%30.01 "HgN/A
5:50 PM64 °FBroken clouds.2 mph78%30.01 "HgN/A
5:20 PM64 °FScattered clouds.6 mph78%30.01 "HgN/A
4:50 PM66 °FScattered clouds.6 mph73%30.01 "HgN/A
4:20 PM66 °FPassing clouds.6 mph68%30.01 "HgN/A
3:50 PM66 °FScattered clouds.6 mph68%30.01 "HgN/A
3:20 PM66 °FScattered clouds.3 mph73%30.01 "Hg6 mi
2:50 PM64 °FPassing clouds.7 mph78%30.04 "Hg6 mi
2:20 PM64 °FClear.6 mph78%30.04 "Hg6 mi
1:50 PM63 °FPartly sunny.9 mph83%30.04 "Hg6 mi
1:20 PM64 °FBroken clouds.12 mph78%30.04 "HgN/A
12:50 PM63 °FScattered clouds.7 mph83%30.04 "HgN/A
12:20 PM64 °FPartly sunny.9 mph78%30.07 "HgN/A
11:50 AM63 °FBroken clouds.7 mph83%30.07 "HgN/A
11:20 AM63 °FBroken clouds.5 mph83%30.07 "Hg6 mi
10:50 AM61 °FBroken clouds.5 mph94%30.07 "Hg4 mi
10:20 AM59 °FFog.5 mph100%30.07 "Hg3 mi
Weather by CustomWeather, © 2014

See weather overviewHow to use our weather pages